Weather History for Holloman AFB, NM

Change the Weather History Date:

Sunday, October 6, 2013

  Actual Average Record
Temperature  
Mean Temperature 54 °F -  
Max Temperature 73 °F 77 °F 87 °F (1997)
Min Temperature 37 °F 50 °F 37 °F (1998)
Degree Days  
Heating Degree Days 10    
Growing Degree Days 4 (Base 50)    
Moisture  
Dew Point 23 °F    
Average Humidity 32    
Maximum Humidity 54    
Minimum Humidity 13    
Precipitation  
Precipitation 0.00 in - - ()
Sea Level Pressure  
Sea Level Pressure 30.14 in    
Wind  
Wind Speed 3 mph (ENE)    
Max Wind Speed 8 mph    
Max Gust Speed -    
Visibility 10 miles    
Events      
Averages and records for this station are not official NWS values.
T = Trace of Precipitation, MM = Missing Value Source: NWS Daily Summary

Daily Weather History Graph

Daily Weather History Graph

Search for Another Location

Airport:

Trip Planner

Search our weather history database for the weather conditions in past years. The results will help you decide how hot, cold, wet, or windy it might be!

Date:

Astronomy

Oct. 06, 2013 Rise Set
Actual Time 7:02 AM MDT 6:42 PM MDT
Civil Twilight 6:37 AM MDT 7:06 PM MDT
Nautical Twilight 6:08 AM MDT 7:35 PM MDT
Astronomical Twilight 5:40 AM MDT 8:03 PM MDT
Moon 8:42 AM MDT (10/6) 7:51 PM MDT (10/6)
Length of Visible Light 12h 29m
Length of Day
11h 39m
Waxing Crescent, 4% of the Moon is Illuminated
Oct 6
Waxing Crescent
Oct 11
First Quarter
Oct 18
Full
Oct 26
Last Quarter
Nov 3
New

Hourly Weather History & Observations

Time (MDT) Temp. Windchill Dew Point Humidity Pressure Visibility Wind Dir Wind Speed Gust Speed Precip Events Conditions
12:58 AM 43.5 °F - 21.7 °F 42% 30.12 in 10.0 mi ESE 2.3 mph - N/A   Clear
1:58 AM 43.5 °F - 22.3 °F 43% 30.13 in 10.0 mi Calm Calm - N/A   Clear
2:58 AM 39.0 °F 34.8 °F 21.9 °F 50% 30.13 in 10.0 mi NE 5.8 mph - N/A   Clear
3:58 AM 38.1 °F 35.7 °F 22.1 °F 53% 30.12 in 10.0 mi NE 3.5 mph - N/A   Clear
4:58 AM 39.7 °F - 21.9 °F 49% 30.15 in 10.0 mi ENE 1.2 mph - N/A   Clear
5:58 AM 37.2 °F 31.2 °F 22.1 °F 54% 30.16 in 10.0 mi NE 8.1 mph - N/A   Clear
6:58 AM 37.2 °F - 21.7 °F 54% 30.19 in 10.0 mi NNE 1.2 mph - N/A   Clear
7:58 AM 41.9 °F 39.0 °F 23.7 °F 49% 30.20 in 10.0 mi South 4.6 mph - N/A   Clear
8:58 AM 45.7 °F 44.4 °F 22.6 °F 40% 30.23 in 10.0 mi North 3.5 mph - N/A   Clear
9:58 AM 57.7 °F - 23.0 °F 26% 30.22 in 10.0 mi NNE 5.8 mph - N/A   Clear
10:58 AM 63.5 °F - 20.3 °F 19% 30.20 in 10.0 mi NE 1.2 mph - N/A   Clear
11:58 AM 67.3 °F - 20.5 °F 17% 30.19 in 10.0 mi Calm Calm - N/A   Clear
12:58 PM 68.5 °F - 21.2 °F 17% 30.16 in 10.0 mi Variable 2.3 mph - N/A   Clear
1:58 PM 70.0 °F - 21.2 °F 16% 30.12 in 10.0 mi SSW 2.3 mph - N/A   Clear
2:58 PM 72.0 °F - 20.7 °F 14% 30.11 in 10.0 mi Variable 5.8 mph - N/A   Clear
3:58 PM 72.9 °F - 21.0 °F 14% 30.09 in 10.0 mi WSW 4.6 mph - N/A   Clear
4:58 PM 72.1 °F - 19.0 °F 13% 30.09 in 10.0 mi Calm Calm - N/A   Clear
5:58 PM 72.0 °F - 19.4 °F 14% 30.10 in 10.0 mi WSW 3.5 mph - N/A   Clear
6:58 PM 67.8 °F - 22.5 °F 18% 30.11 in 10.0 mi SE 3.5 mph - N/A   Clear
7:58 PM 61.5 °F - 25.7 °F 26% 30.13 in 10.0 mi East 3.5 mph - N/A   Clear
8:58 PM 57.0 °F - 24.6 °F 29% 30.14 in 10.0 mi NNE 4.6 mph - N/A   Clear
9:58 PM 53.4 °F - 25.7 °F 34% 30.12 in 10.0 mi NE 6.9 mph - N/A   Clear
10:58 PM 53.1 °F - 27.3 °F 37% 30.12 in 10.0 mi East 6.9 mph - N/A   Clear
11:58 PM 49.8 °F - 28.0 °F 43% 30.12 in 10.0 mi East 3.5 mph - N/A   Clear